Weather History for Silver Bay, MN

Change the Weather History Date:

Sunday, September 29, 2013

  Actual Average Record
Temperature  
Mean Temperature 48 °F -  
Max Temperature 66 °F 55 °F 78 °F (2000)
Min Temperature 30 °F 33 °F 24 °F (2003)
Degree Days  
Heating Degree Days 17    
Moisture  
Dew Point 39 °F    
Average Humidity 73    
Maximum Humidity 93    
Minimum Humidity 35    
Precipitation  
Precipitation 0.00 in - - ()
Sea Level Pressure  
Sea Level Pressure 29.85 in    
Wind  
Wind Speed 2 mph (South)    
Max Wind Speed 15 mph    
Max Gust Speed 21 mph    
Visibility 10 miles    
Events      
Averages and records for this station are not official NWS values.
T = Trace of Precipitation, MM = Missing Value Source: NWS Daily Summary

Daily Weather History Graph

Daily Weather History Graph

Search for Another Location

Airport:

Trip Planner

Search our weather history database for the weather conditions in past years. The results will help you decide how hot, cold, wet, or windy it might be!

Date:

Astronomy

Sep. 29, 2013 Rise Set
Actual Time 7:02 AM CDT 6:48 PM CDT
Civil Twilight 6:31 AM CDT 7:19 PM CDT
Nautical Twilight 5:56 AM CDT 7:54 PM CDT
Astronomical Twilight 5:19 AM CDT 8:30 PM CDT
Moon 1:25 AM CDT (9/29) 4:01 PM CDT (9/29)
Length of Visible Light 12h 47m
Length of Day
11h 46m
Waning Crescent, 27% of the Moon is Illuminated
Sep 29
Waning Crescent
Oct 4
New
Oct 11
First Quarter
Oct 18
Full
Oct 26
Last Quarter

Hourly Weather History & Observations

Time (CDT) Temp. Windchill Dew Point Humidity Pressure Visibility Wind Dir Wind Speed Gust Speed Precip Events Conditions
12:13 AM 44.6 °F 43.1 °F 39.2 °F 81% 29.83 in 10.0 mi SW 3.5 mph - N/A   Clear
12:33 AM 44.6 °F 43.1 °F 39.2 °F 81% 29.83 in 10.0 mi SW 3.5 mph - N/A   Clear
12:53 AM 42.8 °F - 39.2 °F 87% 29.83 in 10.0 mi Calm Calm - N/A   Clear
1:13 AM 42.8 °F - 39.2 °F 87% 29.84 in 10.0 mi Calm Calm - N/A   Clear
1:33 AM 41.0 °F - 37.4 °F 87% 29.85 in 10.0 mi Calm Calm - N/A   Clear
1:53 AM 39.2 °F - 37.4 °F 93% 29.86 in 10.0 mi Calm Calm - N/A   Clear
2:13 AM 39.2 °F - 35.6 °F 87% 29.86 in 10.0 mi Calm Calm - N/A   Clear
2:33 AM 37.4 °F - 35.6 °F 93% 29.86 in 10.0 mi Calm Calm - N/A   Clear
2:53 AM 37.4 °F - 33.8 °F 87% 29.85 in 1.5 mi Calm Calm - N/A   Mist
3:13 AM 37.4 °F - 35.6 °F 93% 29.85 in 10.0 mi Calm Calm - N/A   Clear
3:33 AM 37.4 °F - 33.8 °F 87% 29.85 in 10.0 mi Calm Calm - N/A   Clear
3:53 AM 35.6 °F - 33.8 °F 93% 29.85 in 7.0 mi Calm Calm - N/A   Clear
4:13 AM 35.6 °F - 33.8 °F 93% 29.85 in 10.0 mi Calm Calm - N/A   Clear
4:33 AM 35.6 °F - 33.8 °F 93% 29.84 in 10.0 mi Calm Calm - N/A   Clear
4:53 AM 33.8 °F - 30.2 °F 87% 29.85 in 10.0 mi Calm Calm - N/A   Clear
5:13 AM 33.8 °F - 30.2 °F 87% 29.85 in 10.0 mi Calm Calm - N/A   Clear
5:33 AM 33.8 °F - 30.2 °F 87% 29.85 in 10.0 mi Calm Calm - N/A   Clear
5:53 AM 33.8 °F - 30.2 °F 87% 29.85 in 10.0 mi Calm Calm - N/A   Clear
6:13 AM 33.8 °F - 30.2 °F 87% 29.86 in 10.0 mi Calm Calm - N/A   Clear
6:33 AM 33.8 °F - 30.2 °F 87% 29.87 in 10.0 mi Calm Calm - N/A   Clear
6:53 AM 32.0 °F - 30.2 °F 93% 29.87 in 10.0 mi Calm Calm - N/A   Clear
7:13 AM 30.2 °F - 28.4 °F 93% 29.88 in 10.0 mi Calm Calm - N/A   Clear
7:33 AM 30.2 °F - 28.4 °F 93% 29.88 in 10.0 mi Calm Calm - N/A   Clear
7:53 AM 33.8 °F - 30.2 °F 87% 29.88 in 10.0 mi Calm Calm - N/A   Clear
8:13 AM 35.6 °F - 33.8 °F 93% 29.88 in 10.0 mi Calm Calm - N/A   Clear
8:33 AM 42.8 °F - 39.2 °F 87% 29.88 in 10.0 mi Calm Calm - N/A   Clear
8:53 AM 44.6 °F - 39.2 °F 81% 29.88 in 10.0 mi Calm Calm - N/A   Clear
9:13 AM 46.4 °F - 39.2 °F 76% 29.88 in 10.0 mi Calm Calm - N/A   Clear
9:33 AM 50.0 °F - 42.8 °F 76% 29.89 in 10.0 mi Calm Calm - N/A   Clear
9:53 AM 51.8 °F - 42.8 °F 71% 29.89 in 10.0 mi South 3.5 mph - N/A   Clear
10:13 AM 53.6 °F - 42.8 °F 67% 29.89 in 10.0 mi Calm Calm - N/A   Clear
10:33 AM 55.4 °F - 42.8 °F 63% 29.89 in 10.0 mi South 4.6 mph - N/A   Clear
10:53 AM 57.2 °F - 42.8 °F 59% 29.88 in 10.0 mi Calm Calm - N/A   Clear
11:13 AM 59.0 °F - 42.8 °F 55% 29.88 in 10.0 mi South 3.5 mph - N/A   Clear
11:33 AM 59.0 °F - 46.4 °F 63% 29.88 in 10.0 mi SE 5.8 mph - N/A   Clear
11:53 AM 59.0 °F - 46.4 °F 63% 29.88 in 10.0 mi SSE 8.1 mph - N/A   Clear
12:13 PM 59.0 °F - 46.4 °F 63% 29.88 in 10.0 mi South 6.9 mph - N/A   Clear
12:33 PM 60.8 °F - 44.6 °F 55% 29.88 in 10.0 mi SSE 5.8 mph - N/A   Clear
12:53 PM 60.8 °F - 42.8 °F 52% 29.87 in 10.0 mi SSE 8.1 mph - N/A   Clear
1:13 PM 62.6 °F - 42.8 °F 48% 29.87 in 10.0 mi South 10.4 mph - N/A   Clear
1:33 PM 62.6 °F - 41.0 °F 45% 29.86 in 10.0 mi South 8.1 mph - N/A   Clear
1:53 PM 62.6 °F - 39.2 °F 42% 29.86 in 10.0 mi South 11.5 mph - N/A   Clear
2:13 PM 64.4 °F - 39.2 °F 40% 29.85 in 10.0 mi South 11.5 mph - N/A   Clear
2:33 PM 64.4 °F - 39.2 °F 40% 29.85 in 10.0 mi South 12.7 mph 20.7 mph N/A   Clear
2:53 PM 64.4 °F - 39.2 °F 40% 29.84 in 10.0 mi South 15.0 mph 19.6 mph N/A   Clear
3:13 PM 64.4 °F - 39.2 °F 40% 29.84 in 10.0 mi South 11.5 mph - N/A   Clear
3:33 PM 64.4 °F - 39.2 °F 40% 29.83 in 10.0 mi South 12.7 mph 19.6 mph N/A   Clear
3:53 PM 64.4 °F - 39.2 °F 40% 29.83 in 10.0 mi SSE 10.4 mph - N/A   Clear
4:13 PM 66.2 °F - 37.4 °F 35% 29.83 in 10.0 mi South 10.4 mph - N/A   Clear
4:33 PM 64.4 °F - 37.4 °F 37% 29.83 in 10.0 mi South 9.2 mph - N/A   Clear
4:53 PM 64.4 °F - 39.2 °F 40% 29.83 in 10.0 mi South 6.9 mph - N/A   Clear
5:13 PM 64.4 °F - 39.2 °F 40% 29.82 in 10.0 mi South 5.8 mph - N/A   Clear
5:33 PM 62.6 °F - 41.0 °F 45% 29.82 in 10.0 mi South 4.6 mph - N/A   Clear
5:53 PM 60.8 °F - 42.8 °F 52% 29.82 in 10.0 mi Calm Calm - N/A   Clear
6:13 PM 59.0 °F - 44.6 °F 59% 29.82 in 10.0 mi Calm Calm - N/A   Clear
6:33 PM 55.4 °F - 44.6 °F 67% 29.82 in 10.0 mi Calm Calm - N/A   Clear
6:53 PM 55.4 °F - 44.6 °F 67% 29.82 in 10.0 mi Calm Calm - N/A   Clear
7:13 PM 53.6 °F - 44.6 °F 72% 29.82 in 10.0 mi Calm Calm - N/A   Clear
7:33 PM 51.8 °F - 44.6 °F 76% 29.82 in 10.0 mi Calm Calm - N/A   Clear
7:53 PM 50.0 °F - 44.6 °F 82% 29.82 in 10.0 mi Calm Calm - N/A   Clear
8:13 PM 50.0 °F - 44.6 °F 82% 29.82 in 10.0 mi Calm Calm - N/A   Clear
8:33 PM 48.2 °F - 44.6 °F 87% 29.82 in 10.0 mi Calm Calm - N/A   Clear
8:53 PM 48.2 °F - 44.6 °F 87% 29.82 in 10.0 mi Calm Calm - N/A   Clear
9:13 PM 48.2 °F - 42.8 °F 82% 29.83 in 10.0 mi Calm Calm - N/A   Clear
9:33 PM 46.4 °F - 42.8 °F 87% 29.82 in 10.0 mi Calm Calm - N/A   Clear
9:53 PM 44.6 °F - 42.8 °F 93% 29.82 in 10.0 mi Calm Calm - N/A   Clear
10:13 PM 44.6 °F - 41.0 °F 87% 29.81 in 10.0 mi Calm Calm - N/A   Clear
10:33 PM 44.6 °F - 41.0 °F 87% 29.81 in 10.0 mi Calm Calm - N/A   Clear
10:53 PM 44.6 °F - 41.0 °F 87% 29.81 in 10.0 mi Calm Calm - N/A   Clear
11:13 PM 44.6 °F - 41.0 °F 87% 29.80 in 10.0 mi Calm Calm - N/A   Clear
11:33 PM 48.2 °F - 42.8 °F 82% 29.79 in 10.0 mi Calm Calm - N/A   Clear
11:53 PM 44.6 °F - 42.8 °F 93% 29.78 in 10.0 mi Calm Calm - N/A   Clear